Time,TemperatureF,DewpointF,PressureIn,WindDirection,WindDirectionDegrees,WindSpeedMPH,WindSpeedGustMPH,Humidity,HourlyPrecipIn,Conditions,Clouds,dailyrainin,SoftwareType,DateUTC
2013-02-21 00:00:00,26.8,9.7,29.17,North,0,0.0,0.0,48,0.00,,---,0.00,VWS V14.01,2013-02-21 05:00:00,
2013-02-21 00:01:00,26.6,10.0,29.17,North,0,0.0,0.0,49,0.00,,---,0.00,VWS V14.01,2013-02-21 05:01:00,
2013-02-21 00:03:00,26.6,9.6,29.17,North,0,0.0,0.0,48,0.00,,---,0.00,VWS V14.01,2013-02-21 05:03:00,
2013-02-21 00:08:00,26.2,9.7,29.17,North,0,0.0,0.0,49,0.00,,---,0.00,VWS V14.01,2013-02-21 05:08:00,
2013-02-21 00:13:00,26.2,10.1,29.17,North,0,0.0,0.0,50,0.00,,---,0.00,VWS V14.01,2013-02-21 05:13:00,
2013-02-21 00:18:00,26.1,10.0,29.17,North,0,0.0,0.0,50,0.00,,---,0.00,VWS V14.01,2013-02-21 05:18:00,
2013-02-21 00:23:00,26.2,9.7,29.17,North,0,0.0,0.0,49,0.00,,---,0.00,VWS V14.01,2013-02-21 05:23:00,
2013-02-21 00:28:00,26.2,9.7,29.17,North,0,0.0,0.0,49,0.00,,---,0.00,VWS V14.01,2013-02-21 05:28:00,
2013-02-21 00:33:00,25.5,9.5,29.17,North,0,0.0,0.0,50,0.00,,---,0.00,VWS V14.01,2013-02-21 05:33:00,
2013-02-21 00:38:00,25.2,9.6,29.17,North,0,0.0,0.0,51,0.00,,---,0.00,VWS V14.01,2013-02-21 05:38:00,
2013-02-21 00:40:00,25.0,9.9,29.17,North,0,0.0,0.0,52,0.00,,---,0.00,VWS V14.01,2013-02-21 05:40:00,
2013-02-21 00:46:00,24.6,9.9,29.17,North,0,0.0,0.0,53,0.00,,---,0.00,VWS V14.01,2013-02-21 05:46:00,
2013-02-21 00:52:00,24.6,9.9,29.17,North,0,0.0,0.0,53,0.00,,---,0.00,VWS V14.01,2013-02-21 05:52:00,
2013-02-21 00:57:00,23.9,9.3,29.17,North,0,0.0,0.0,53,0.00,,---,0.00,VWS V14.01,2013-02-21 05:57:00,
2013-02-21 01:02:00,23.5,9.8,29.17,North,0,0.0,0.0,55,0.00,,---,0.00,VWS V14.01,2013-02-21 06:02:00,
2013-02-21 01:07:00,23.0,9.2,29.17,North,0,0.0,0.0,55,0.00,,---,0.00,VWS V14.01,2013-02-21 06:07:00,
2013-02-21 01:12:00,22.8,9.5,29.17,North,0,0.0,0.0,56,0.00,,---,0.00,VWS V14.01,2013-02-21 06:12:00,
2013-02-21 01:18:00,22.8,9.5,29.17,North,0,0.0,0.0,56,0.00,,---,0.00,VWS V14.01,2013-02-21 06:18:00,
2013-02-21 01:23:00,22.5,9.1,29.17,North,0,0.0,0.0,56,0.00,,---,0.00,VWS V14.01,2013-02-21 06:23:00,
2013-02-21 01:28:00,22.1,9.2,29.17,North,0,0.0,0.0,57,0.00,,---,0.00,VWS V14.01,2013-02-21 06:28:00,
2013-02-21 01:33:00,21.9,9.0,29.17,North,0,0.0,0.0,57,0.00,,---,0.00,VWS V14.01,2013-02-21 06:33:00,
2013-02-21 01:38:00,22.1,9.2,29.17,North,0,0.0,0.0,57,0.00,,---,0.00,VWS V14.01,2013-02-21 06:38:00,
2013-02-21 01:43:00,22.1,9.6,29.17,North,0,0.0,0.0,58,0.00,,---,0.00,VWS V14.01,2013-02-21 06:43:00,
2013-02-21 01:49:00,22.1,9.6,29.17,North,0,0.0,0.0,58,0.00,,---,0.00,VWS V14.01,2013-02-21 06:49:00,
2013-02-21 01:54:00,22.1,9.6,29.17,North,0,0.0,0.0,58,0.00,,---,0.00,VWS V14.01,2013-02-21 06:54:00,
2013-02-21 01:59:00,21.9,10.2,29.17,North,0,0.0,0.0,60,0.00,,---,0.00,VWS V14.01,2013-02-21 06:59:00,
2013-02-21 02:05:00,21.9,10.2,29.17,North,0,0.0,0.0,60,0.00,,---,0.00,VWS V14.01,2013-02-21 07:05:00,
2013-02-21 02:10:00,21.7,10.0,29.17,North,0,0.0,0.0,60,0.00,,---,0.00,VWS V14.01,2013-02-21 07:10:00,
2013-02-21 02:15:00,21.4,10.0,29.17,North,0,0.0,0.0,61,0.00,,---,0.00,VWS V14.01,2013-02-21 07:15:00,
2013-02-21 02:20:00,21.4,10.0,29.17,North,0,0.0,0.0,61,0.00,,---,0.00,VWS V14.01,2013-02-21 07:20:00,
2013-02-21 02:26:00,21.2,10.2,29.20,North,0,0.0,0.0,62,0.00,,---,0.00,VWS V14.01,2013-02-21 07:26:00,
2013-02-21 02:31:00,21.6,10.2,29.20,North,0,0.0,0.0,61,0.00,,---,0.00,VWS V14.01,2013-02-21 07:31:00,
2013-02-21 02:36:00,21.9,10.9,29.20,North,0,0.0,0.0,62,0.00,,---,0.00,VWS V14.01,2013-02-21 07:36:00,
2013-02-21 02:41:00,22.1,9.2,29.20,North,0,0.0,0.0,57,0.00,,---,0.00,VWS V14.01,2013-02-21 07:41:00,
2013-02-21 02:46:00,22.5,9.9,29.20,North,0,0.0,0.0,58,0.00,,---,0.00,VWS V14.01,2013-02-21 07:46:00,
2013-02-21 02:51:00,22.5,9.5,29.20,North,0,0.0,0.0,57,0.00,,---,0.00,VWS V14.01,2013-02-21 07:51:00,
2013-02-21 02:56:00,22.5,9.5,29.17,North,0,0.0,0.0,57,0.00,,---,0.00,VWS V14.01,2013-02-21 07:56:00,
2013-02-21 03:01:00,22.6,9.3,29.17,North,0,0.0,0.0,56,0.00,,---,0.00,VWS V14.01,2013-02-21 08:01:00,
2013-02-21 03:06:00,22.3,9.0,29.17,North,0,0.0,0.0,56,0.00,,---,0.00,VWS V14.01,2013-02-21 08:06:00,
2013-02-21 03:11:00,22.1,8.8,29.20,North,0,0.0,0.0,56,0.00,,---,0.00,VWS V14.01,2013-02-21 08:11:00,
2013-02-21 03:16:00,21.7,8.9,29.20,North,0,0.0,0.0,57,0.00,,---,0.00,VWS V14.01,2013-02-21 08:16:00,
2013-02-21 03:21:00,21.6,8.7,29.20,North,0,0.0,0.0,57,0.00,,---,0.00,VWS V14.01,2013-02-21 08:21:00,
2013-02-21 03:26:00,21.6,8.7,29.20,North,0,0.0,0.0,57,0.00,,---,0.00,VWS V14.01,2013-02-21 08:26:00,
2013-02-21 03:31:00,21.6,8.7,29.20,North,0,0.0,0.0,57,0.00,,---,0.00,VWS V14.01,2013-02-21 08:31:00,
2013-02-21 03:36:00,21.6,8.7,29.20,North,0,0.0,0.0,57,0.00,,---,0.00,VWS V14.01,2013-02-21 08:36:00,
2013-02-21 03:42:00,21.6,8.7,29.20,North,0,0.0,0.0,57,0.00,,---,0.00,VWS V14.01,2013-02-21 08:42:00,
2013-02-21 03:47:00,21.6,8.7,29.20,North,0,0.0,0.0,57,0.00,,---,0.00,VWS V14.01,2013-02-21 08:47:00,
2013-02-21 03:52:00,21.6,8.7,29.20,North,0,0.0,0.0,57,0.00,,---,0.00,VWS V14.01,2013-02-21 08:52:00,
2013-02-21 03:58:00,21.6,8.7,29.20,North,0,0.0,0.0,57,0.00,,---,0.00,VWS V14.01,2013-02-21 08:58:00,
2013-02-21 04:03:00,21.6,8.7,29.20,North,0,0.0,0.0,57,0.00,,---,0.00,VWS V14.01,2013-02-21 09:03:00,
2013-02-21 04:08:00,21.6,8.7,29.23,North,0,0.0,0.0,57,0.00,,---,0.00,VWS V14.01,2013-02-21 09:08:00,
2013-02-21 04:13:00,21.6,8.7,29.23,North,0,0.0,0.0,57,0.00,,---,0.00,VWS V14.01,2013-02-21 09:13:00,
2013-02-21 04:18:00,19.8,6.6,29.23,North,0,0.0,0.0,56,0.00,,---,0.00,VWS V14.01,2013-02-21 09:18:00,
2013-02-21 04:23:00,19.8,6.6,29.20,North,0,0.0,0.0,56,0.00,,---,0.00,VWS V14.01,2013-02-21 09:23:00,
2013-02-21 04:28:00,19.9,6.0,29.20,North,0,0.0,0.0,54,0.00,,---,0.00,VWS V14.01,2013-02-21 09:28:00,
2013-02-21 04:34:00,19.8,5.8,29.20,North,0,0.0,0.0,54,0.00,,---,0.00,VWS V14.01,2013-02-21 09:34:00,
2013-02-21 04:39:00,19.8,5.8,29.20,North,0,0.0,0.0,54,0.00,,---,0.00,VWS V14.01,2013-02-21 09:39:00,
2013-02-21 04:45:00,19.8,5.8,29.20,North,0,0.0,0.0,54,0.00,,---,0.00,VWS V14.01,2013-02-21 09:45:00,
2013-02-21 04:50:00,19.6,5.2,29.20,North,0,0.0,0.0,53,0.00,,---,0.00,VWS V14.01,2013-02-21 09:50:00,
2013-02-21 04:55:00,19.4,5.5,29.20,North,0,0.0,0.0,54,0.00,,---,0.00,VWS V14.01,2013-02-21 09:55:00,
2013-02-21 05:00:00,19.4,5.5,29.20,North,0,0.0,0.0,54,0.00,,---,0.00,VWS V14.01,2013-02-21 10:00:00,
2013-02-21 05:05:00,18.0,4.1,29.20,North,0,0.0,0.0,54,0.00,,---,0.00,VWS V14.01,2013-02-21 10:05:00,
2013-02-21 05:10:00,17.6,3.8,29.20,North,0,0.0,0.0,54,0.00,,---,0.00,VWS V14.01,2013-02-21 10:10:00,
2013-02-21 05:15:00,17.4,4.0,29.20,North,0,0.0,0.0,55,0.00,,---,0.00,VWS V14.01,2013-02-21 10:15:00,
2013-02-21 05:20:00,16.7,3.3,29.20,North,0,0.0,0.0,55,0.00,,---,0.00,VWS V14.01,2013-02-21 10:20:00,
2013-02-21 05:25:00,16.0,2.7,29.23,North,0,0.0,0.0,55,0.00,,---,0.00,VWS V14.01,2013-02-21 10:25:00,
2013-02-21 05:30:00,15.4,2.6,29.23,North,0,0.0,0.0,56,0.00,,---,0.00,VWS V14.01,2013-02-21 10:30:00,
2013-02-21 05:36:00,15.4,2.9,29.23,North,0,0.0,0.0,57,0.00,,---,0.00,VWS V14.01,2013-02-21 10:36:00,
2013-02-21 05:41:00,15.4,3.3,29.23,North,0,0.0,0.0,58,0.00,,---,0.00,VWS V14.01,2013-02-21 10:41:00,
2013-02-21 05:46:00,15.3,3.2,29.23,North,0,0.0,0.0,58,0.00,,---,0.00,VWS V14.01,2013-02-21 10:46:00,
2013-02-21 05:51:00,14.9,2.8,29.23,North,0,0.0,0.0,58,0.00,,---,0.00,VWS V14.01,2013-02-21 10:51:00,
2013-02-21 05:56:00,14.4,2.3,29.23,North,0,0.0,0.0,58,0.00,,---,0.00,VWS V14.01,2013-02-21 10:56:00,
2013-02-21 06:02:00,13.6,1.6,29.23,North,0,0.0,0.0,58,0.00,,---,0.00,VWS V14.01,2013-02-21 11:02:00,
2013-02-21 06:07:00,13.3,1.3,29.23,North,0,0.0,0.0,58,0.00,,---,0.00,VWS V14.01,2013-02-21 11:07:00,
2013-02-21 06:12:00,12.7,0.8,29.23,North,0,0.0,0.0,58,0.00,,---,0.00,VWS V14.01,2013-02-21 11:12:00,
2013-02-21 06:17:00,12.2,0.3,29.23,North,0,0.0,0.0,58,0.00,,---,0.00,VWS V14.01,2013-02-21 11:17:00,
2013-02-21 06:22:00,11.7,-0.2,29.26,North,0,0.0,0.0,58,0.00,,---,0.00,VWS V14.01,2013-02-21 11:22:00,
2013-02-21 06:27:00,11.5,-0.4,29.26,North,0,0.0,0.0,58,0.00,,---,0.00,VWS V14.01,2013-02-21 11:27:00,
2013-02-21 06:32:00,11.5,-0.4,29.26,North,0,0.0,0.0,58,0.00,,---,0.00,VWS V14.01,2013-02-21 11:32:00,
2013-02-21 06:38:00,11.5,-0.4,29.26,North,0,0.0,0.0,58,0.00,,---,0.00,VWS V14.01,2013-02-21 11:38:00,
2013-02-21 06:43:00,11.7,-0.2,29.26,North,0,0.0,0.0,58,0.00,,---,0.00,VWS V14.01,2013-02-21 11:43:00,
2013-02-21 06:49:00,11.8,-0.1,29.26,North,0,0.0,0.0,58,0.00,,---,0.00,VWS V14.01,2013-02-21 11:49:00,
2013-02-21 06:54:00,11.8,-0.1,29.26,North,0,0.0,0.0,58,0.00,,---,0.00,VWS V14.01,2013-02-21 11:54:00,
2013-02-21 06:59:00,12.0,0.1,29.26,North,0,0.0,0.0,58,0.00,,---,0.00,VWS V14.01,2013-02-21 11:59:00,
2013-02-21 07:04:00,12.4,0.4,29.26,North,0,0.0,0.0,58,0.00,,---,0.00,VWS V14.01,2013-02-21 12:04:00,
2013-02-21 07:09:00,13.1,1.1,29.26,North,0,0.0,0.0,58,0.00,,---,0.00,VWS V14.01,2013-02-21 12:09:00,
2013-02-21 07:14:00,13.5,1.5,29.26,North,0,0.0,0.0,58,0.00,,---,0.00,VWS V14.01,2013-02-21 12:14:00,
2013-02-21 07:19:00,14.5,3.9,29.26,North,0,0.0,0.0,62,0.00,,---,0.00,VWS V14.01,2013-02-21 12:19:00,
2013-02-21 07:24:00,15.6,5.3,29.29,North,0,0.0,0.0,63,0.00,,---,0.00,VWS V14.01,2013-02-21 12:24:00,
2013-02-21 07:29:00,16.3,5.6,29.29,North,0,0.0,0.0,62,0.00,,---,0.00,VWS V14.01,2013-02-21 12:29:00,
2013-02-21 07:34:00,17.6,6.8,29.29,North,0,0.0,0.0,62,0.00,,---,0.00,VWS V14.01,2013-02-21 12:34:00,
2013-02-21 07:39:00,18.5,7.7,29.29,North,0,0.0,0.0,62,0.00,,---,0.00,VWS V14.01,2013-02-21 12:39:00,
2013-02-21 07:45:00,20.1,8.8,29.29,North,0,0.0,0.0,61,0.00,,---,0.00,VWS V14.01,2013-02-21 12:45:00,
2013-02-21 07:50:00,21.0,8.9,29.29,North,0,0.0,0.0,59,0.00,,---,0.00,VWS V14.01,2013-02-21 12:50:00,
2013-02-21 07:55:00,21.7,8.9,29.29,North,0,0.0,0.0,57,0.00,,---,0.00,VWS V14.01,2013-02-21 12:55:00,
2013-02-21 08:01:00,22.3,8.6,29.29,North,0,0.0,0.0,55,0.00,,---,0.00,VWS V14.01,2013-02-21 13:01:00,
2013-02-21 08:06:00,22.6,8.5,29.29,North,0,0.0,0.0,54,0.00,,---,0.00,VWS V14.01,2013-02-21 13:06:00,
2013-02-21 08:11:00,22.5,5.3,29.29,North,0,0.0,0.0,47,0.00,,---,0.00,VWS V14.01,2013-02-21 13:11:00,
2013-02-21 08:16:00,22.5,4.3,29.29,North,0,0.0,0.0,45,0.00,,---,0.00,VWS V14.01,2013-02-21 13:16:00,
2013-02-21 08:21:00,22.5,4.3,29.29,North,0,0.0,0.0,45,0.00,,---,0.00,VWS V14.01,2013-02-21 13:21:00,
2013-02-21 08:26:00,22.5,4.3,29.29,North,0,0.0,0.0,45,0.00,,---,0.00,VWS V14.01,2013-02-21 13:26:00,
2013-02-21 08:32:00,21.9,3.4,29.29,North,0,0.0,0.0,44,0.00,,---,0.00,VWS V14.01,2013-02-21 13:32:00,
2013-02-21 08:37:00,21.9,3.4,29.29,North,0,0.0,0.0,44,0.00,,---,0.00,VWS V14.01,2013-02-21 13:37:00,
2013-02-21 08:42:00,21.9,3.4,29.29,North,0,0.0,0.0,44,0.00,,---,0.00,VWS V14.01,2013-02-21 13:42:00,
2013-02-21 08:47:00,21.9,3.4,29.29,North,0,0.0,0.0,44,0.00,,---,0.00,VWS V14.01,2013-02-21 13:47:00,
2013-02-21 08:52:00,22.1,3.5,29.29,North,0,0.0,0.0,44,0.00,,---,0.00,VWS V14.01,2013-02-21 13:52:00,
2013-02-21 08:57:00,23.0,4.3,29.29,North,0,0.0,0.0,44,0.00,,---,0.00,VWS V14.01,2013-02-21 13:57:00,
2013-02-21 09:02:00,23.4,4.2,29.29,North,0,0.0,0.0,43,0.00,,---,0.00,VWS V14.01,2013-02-21 14:02:00,
2013-02-21 09:07:00,23.9,5.2,29.29,North,0,0.0,0.0,44,0.00,,---,0.00,VWS V14.01,2013-02-21 14:07:00,
2013-02-21 09:12:00,24.1,4.8,29.29,North,0,0.0,0.0,43,0.00,,---,0.00,VWS V14.01,2013-02-21 14:12:00,
2013-02-21 09:17:00,24.1,4.8,29.29,North,0,0.0,0.0,43,0.00,,---,0.00,VWS V14.01,2013-02-21 14:17:00,
2013-02-21 09:22:00,24.8,6.0,29.29,North,0,0.0,0.0,44,0.00,,---,0.00,VWS V14.01,2013-02-21 14:22:00,
2013-02-21 09:27:00,25.0,5.7,29.29,North,0,0.0,0.0,43,0.00,,---,0.00,VWS V14.01,2013-02-21 14:27:00,
2013-02-21 09:32:00,25.0,5.7,29.29,North,0,0.0,0.0,43,0.00,,---,0.00,VWS V14.01,2013-02-21 14:32:00,
2013-02-21 09:37:00,25.0,5.1,29.29,North,0,0.0,0.0,42,0.00,,---,0.00,VWS V14.01,2013-02-21 14:37:00,
2013-02-21 09:42:00,25.5,6.2,29.29,North,0,0.0,0.0,43,0.00,,---,0.00,VWS V14.01,2013-02-21 14:42:00,
2013-02-21 09:47:00,26.4,7.0,29.29,North,0,0.0,0.0,43,0.00,,---,0.00,VWS V14.01,2013-02-21 14:47:00,
2013-02-21 09:52:00,26.6,6.6,29.29,North,0,0.0,0.0,42,0.00,,---,0.00,VWS V14.01,2013-02-21 14:52:00,
2013-02-21 09:57:00,27.3,7.3,29.29,North,0,0.0,0.0,42,0.00,,---,0.00,VWS V14.01,2013-02-21 14:57:00,
2013-02-21 10:03:00,27.3,7.3,29.29,North,0,0.0,0.0,42,0.00,,---,0.00,VWS V14.01,2013-02-21 15:03:00,
2013-02-21 10:08:00,28.0,7.9,29.32,North,0,0.0,0.0,42,0.00,,---,0.00,VWS V14.01,2013-02-21 15:08:00,
2013-02-21 10:14:00,28.0,7.9,29.32,North,0,0.0,0.0,42,0.00,,---,0.00,VWS V14.01,2013-02-21 15:14:00,
2013-02-21 10:20:00,28.0,7.9,29.32,North,0,0.0,0.0,42,0.00,,---,0.00,VWS V14.01,2013-02-21 15:20:00,
2013-02-21 10:28:00,28.0,7.9,29.32,North,0,0.0,0.0,42,0.00,,---,0.00,VWS V14.01,2013-02-21 15:28:00,
2013-02-21 10:33:00,28.0,7.9,29.32,North,0,0.0,0.0,42,0.00,,---,0.00,VWS V14.01,2013-02-21 15:33:00,
2013-02-21 10:38:00,25.5,5.6,29.32,North,0,0.0,0.0,42,0.00,,---,0.00,VWS V14.01,2013-02-21 15:38:00,
2013-02-21 10:43:00,25.5,5.6,29.32,North,0,0.0,0.0,42,0.00,,---,0.00,VWS V14.01,2013-02-21 15:43:00,
2013-02-21 10:48:00,26.1,6.1,29.32,North,0,0.0,0.0,42,0.00,,---,0.00,VWS V14.01,2013-02-21 15:48:00,
2013-02-21 10:53:00,25.9,6.0,29.32,North,0,0.0,0.0,42,0.00,,---,0.00,VWS V14.01,2013-02-21 15:53:00,
2013-02-21 10:58:00,26.1,6.1,29.32,North,0,0.0,0.0,42,0.00,,---,0.00,VWS V14.01,2013-02-21 15:58:00,
2013-02-21 11:03:00,25.3,4.9,29.32,North,0,0.0,0.0,41,0.00,,---,0.00,VWS V14.01,2013-02-21 16:03:00,
2013-02-21 11:08:00,24.6,4.8,29.32,North,0,0.0,0.0,42,0.00,,---,0.00,VWS V14.01,2013-02-21 16:08:00,
2013-02-21 11:13:00,24.6,4.8,29.32,North,0,0.0,0.0,42,0.00,,---,0.00,VWS V14.01,2013-02-21 16:13:00,
2013-02-21 11:18:00,24.8,5.0,29.32,North,0,0.0,0.0,42,0.00,,---,0.00,VWS V14.01,2013-02-21 16:18:00,
2013-02-21 11:23:00,25.0,4.6,29.32,North,0,0.0,0.0,41,0.00,,---,0.00,VWS V14.01,2013-02-21 16:23:00,
2013-02-21 11:28:00,25.3,4.9,29.32,North,0,0.0,0.0,41,0.00,,---,0.00,VWS V14.01,2013-02-21 16:28:00,
2013-02-21 11:33:00,26.2,6.3,29.32,North,0,0.0,0.0,42,0.00,,---,0.00,VWS V14.01,2013-02-21 16:33:00,
2013-02-21 11:38:00,26.6,6.1,29.32,North,0,0.0,0.0,41,0.00,,---,0.00,VWS V14.01,2013-02-21 16:38:00,
2013-02-21 11:43:00,27.1,6.6,29.32,North,0,0.0,0.0,41,0.00,,---,0.00,VWS V14.01,2013-02-21 16:43:00,
2013-02-21 11:48:00,27.7,7.1,29.32,North,0,0.0,0.0,41,0.00,,---,0.00,VWS V14.01,2013-02-21 16:48:00,
2013-02-21 11:53:00,27.7,7.1,29.32,North,0,0.0,0.0,41,0.00,,---,0.00,VWS V14.01,2013-02-21 16:53:00,
2013-02-21 11:58:00,27.5,6.9,29.32,North,0,0.0,0.0,41,0.00,,---,0.00,VWS V14.01,2013-02-21 16:58:00,
2013-02-21 12:03:00,28.2,7.6,29.32,North,0,0.0,0.0,41,0.00,,---,0.00,VWS V14.01,2013-02-21 17:03:00,
2013-02-21 12:09:00,28.6,7.9,29.35,North,0,0.0,0.0,41,0.00,,---,0.00,VWS V14.01,2013-02-21 17:09:00,
2013-02-21 12:15:00,28.6,7.9,29.35,North,0,0.0,0.0,41,0.00,,---,0.00,VWS V14.01,2013-02-21 17:15:00,
2013-02-21 12:21:00,28.6,7.9,29.35,North,0,0.0,0.0,41,0.00,,---,0.00,VWS V14.01,2013-02-21 17:21:00,
2013-02-21 12:27:00,30.0,9.2,29.32,North,0,0.0,0.0,41,0.00,,---,0.00,VWS V14.01,2013-02-21 17:27:00,
2013-02-21 12:32:00,30.0,9.2,29.32,North,0,0.0,0.0,41,0.00,,---,0.00,VWS V14.01,2013-02-21 17:32:00,
2013-02-21 12:37:00,29.5,8.7,29.32,North,0,0.0,0.0,41,0.00,,---,0.00,VWS V14.01,2013-02-21 17:37:00,
2013-02-21 12:42:00,29.7,8.9,29.32,North,0,0.0,0.0,41,0.00,,---,0.00,VWS V14.01,2013-02-21 17:42:00,
2013-02-21 12:47:00,29.5,8.7,29.32,North,0,0.0,0.0,41,0.00,,---,0.00,VWS V14.01,2013-02-21 17:47:00,
2013-02-21 12:52:00,28.9,8.2,29.32,North,0,0.0,0.0,41,0.00,,---,0.00,VWS V14.01,2013-02-21 17:52:00,
2013-02-21 12:57:00,28.4,7.7,29.32,North,0,0.0,0.0,41,0.00,,---,0.00,VWS V14.01,2013-02-21 17:57:00,
2013-02-21 13:03:00,28.4,7.7,29.32,North,0,0.0,0.0,41,0.00,,---,0.00,VWS V14.01,2013-02-21 18:03:00,
2013-02-21 13:08:00,28.4,7.7,29.32,North,0,0.0,0.0,41,0.00,,---,0.00,VWS V14.01,2013-02-21 18:08:00,
2013-02-21 13:14:00,28.0,7.4,29.32,North,0,0.0,0.0,41,0.00,,---,0.00,VWS V14.01,2013-02-21 18:14:00,
2013-02-21 13:19:00,27.9,7.2,29.32,North,0,0.0,0.0,41,0.00,,---,0.00,VWS V14.01,2013-02-21 18:19:00,
2013-02-21 13:24:00,27.9,7.2,29.35,North,0,0.0,0.0,41,0.00,,---,0.00,VWS V14.01,2013-02-21 18:24:00,
2013-02-21 13:29:00,28.0,7.4,29.35,North,0,0.0,0.0,41,0.00,,---,0.00,VWS V14.01,2013-02-21 18:29:00,
2013-02-21 13:34:00,27.5,6.9,29.35,North,0,0.0,0.0,41,0.00,,---,0.00,VWS V14.01,2013-02-21 18:34:00,
2013-02-21 13:39:00,27.1,6.6,29.35,North,0,0.0,0.0,41,0.00,,---,0.00,VWS V14.01,2013-02-21 18:39:00,
2013-02-21 13:44:00,27.1,6.6,29.35,North,0,0.0,0.0,41,0.00,,---,0.00,VWS V14.01,2013-02-21 18:44:00,
2013-02-21 13:50:00,27.1,6.6,29.35,North,0,0.0,0.0,41,0.00,,---,0.00,VWS V14.01,2013-02-21 18:50:00,
2013-02-21 13:55:00,27.1,6.6,29.35,North,0,0.0,0.0,41,0.00,,---,0.00,VWS V14.01,2013-02-21 18:55:00,
2013-02-21 14:01:00,27.1,6.6,29.35,North,0,0.0,0.0,41,0.00,,---,0.00,VWS V14.01,2013-02-21 19:01:00,
2013-02-21 14:06:00,27.1,6.6,29.35,North,0,0.0,0.0,41,0.00,,---,0.00,VWS V14.01,2013-02-21 19:06:00,
2013-02-21 14:11:00,27.1,6.6,29.35,North,0,0.0,0.0,41,0.00,,---,0.00,VWS V14.01,2013-02-21 19:11:00,
2013-02-21 14:16:00,27.1,6.6,29.35,North,0,0.0,0.0,41,0.00,,---,0.00,VWS V14.01,2013-02-21 19:16:00,
2013-02-21 14:21:00,26.8,6.2,29.35,North,0,0.0,0.0,41,0.00,,---,0.00,VWS V14.01,2013-02-21 19:21:00,
2013-02-21 14:26:00,26.8,6.8,29.35,North,0,0.0,0.0,42,0.00,,---,0.00,VWS V14.01,2013-02-21 19:26:00,
2013-02-21 14:31:00,27.0,6.9,29.35,North,0,0.0,0.0,42,0.00,,---,0.00,VWS V14.01,2013-02-21 19:31:00,
2013-02-21 14:36:00,26.8,6.8,29.38,North,0,0.0,0.0,42,0.00,,---,0.00,VWS V14.01,2013-02-21 19:36:00,
2013-02-21 14:41:00,26.6,6.6,29.38,North,0,0.0,0.0,42,0.00,,---,0.00,VWS V14.01,2013-02-21 19:41:00,
2013-02-21 14:46:00,26.6,6.6,29.38,North,0,0.0,0.0,42,0.00,,---,0.00,VWS V14.01,2013-02-21 19:46:00,
2013-02-21 14:51:00,26.6,6.6,29.38,North,0,0.0,0.0,42,0.00,,---,0.00,VWS V14.01,2013-02-21 19:51:00,
2013-02-21 14:56:00,26.6,6.6,29.38,North,0,0.0,0.0,42,0.00,,---,0.00,VWS V14.01,2013-02-21 19:56:00,
2013-02-21 15:01:00,26.8,6.8,29.38,North,0,0.0,0.0,42,0.00,,---,0.00,VWS V14.01,2013-02-21 20:01:00,
2013-02-21 15:06:00,26.8,6.8,29.38,North,0,0.0,0.0,42,0.00,,---,0.00,VWS V14.01,2013-02-21 20:06:00,
2013-02-21 15:11:00,26.4,6.4,29.38,North,0,0.0,0.0,42,0.00,,---,0.00,VWS V14.01,2013-02-21 20:11:00,
2013-02-21 15:16:00,26.6,7.1,29.38,North,0,0.0,0.0,43,0.00,,---,0.00,VWS V14.01,2013-02-21 20:16:00,
2013-02-21 15:21:00,26.4,7.0,29.41,North,0,0.0,0.0,43,0.00,,---,0.00,VWS V14.01,2013-02-21 20:21:00,
2013-02-21 15:27:00,26.4,7.0,29.41,North,0,0.0,0.0,43,0.00,,---,0.00,VWS V14.01,2013-02-21 20:27:00,
2013-02-21 15:32:00,26.2,6.8,29.41,North,0,0.0,0.0,43,0.00,,---,0.00,VWS V14.01,2013-02-21 20:32:00,
2013-02-21 15:37:00,26.1,6.6,29.41,North,0,0.0,0.0,43,0.00,,---,0.00,VWS V14.01,2013-02-21 20:37:00,
2013-02-21 15:42:00,26.1,6.6,29.41,North,0,0.0,0.0,43,0.00,,---,0.00,VWS V14.01,2013-02-21 20:42:00,
2013-02-21 15:48:00,26.1,6.6,29.41,North,0,0.0,0.0,43,0.00,,---,0.00,VWS V14.01,2013-02-21 20:48:00,
2013-02-21 15:53:00,25.9,6.5,29.41,North,0,0.0,0.0,43,0.00,,---,0.00,VWS V14.01,2013-02-21 20:53:00,
2013-02-21 15:58:00,25.7,6.3,29.41,North,0,0.0,0.0,43,0.00,,---,0.00,VWS V14.01,2013-02-21 20:58:00,
2013-02-21 16:03:00,25.7,6.3,29.41,North,0,0.0,0.0,43,0.00,,---,0.00,VWS V14.01,2013-02-21 21:03:00,
2013-02-21 16:08:00,25.7,6.3,29.41,North,0,0.0,0.0,43,0.00,,---,0.00,VWS V14.01,2013-02-21 21:08:00,
2013-02-21 16:13:00,25.7,6.8,29.41,North,0,0.0,0.0,44,0.00,,---,0.00,VWS V14.01,2013-02-21 21:13:00,
2013-02-21 16:18:00,25.5,6.7,29.41,North,0,0.0,0.0,44,0.00,,---,0.00,VWS V14.01,2013-02-21 21:18:00,
2013-02-21 16:23:00,25.3,6.5,29.44,North,0,0.0,0.0,44,0.00,,---,0.00,VWS V14.01,2013-02-21 21:23:00,
2013-02-21 16:28:00,25.3,6.5,29.44,North,0,0.0,0.0,44,0.00,,---,0.00,VWS V14.01,2013-02-21 21:28:00,
2013-02-21 16:33:00,25.3,6.5,29.44,North,0,0.0,0.0,44,0.00,,---,0.00,VWS V14.01,2013-02-21 21:33:00,
2013-02-21 16:38:00,25.2,6.3,29.44,North,0,0.0,0.0,44,0.00,,---,0.00,VWS V14.01,2013-02-21 21:38:00,
2013-02-21 16:43:00,25.0,6.2,29.44,North,0,0.0,0.0,44,0.00,,---,0.00,VWS V14.01,2013-02-21 21:43:00,
2013-02-21 16:48:00,24.8,6.5,29.44,North,0,0.0,0.0,45,0.00,,---,0.00,VWS V14.01,2013-02-21 21:48:00,
2013-02-21 16:53:00,24.8,6.5,29.47,North,0,0.0,0.0,45,0.00,,---,0.00,VWS V14.01,2013-02-21 21:53:00,
2013-02-21 16:58:00,24.8,6.5,29.47,North,0,0.0,0.0,45,0.00,,---,0.00,VWS V14.01,2013-02-21 21:58:00,
2013-02-21 17:03:00,24.8,7.0,29.47,North,0,0.0,0.0,46,0.00,,---,0.00,VWS V14.01,2013-02-21 22:03:00,
2013-02-21 17:08:00,24.8,7.0,29.50,North,0,0.0,0.0,46,0.00,,---,0.00,VWS V14.01,2013-02-21 22:08:00,
2013-02-21 17:14:00,24.6,6.8,29.50,North,0,0.0,0.0,46,0.00,,---,0.00,VWS V14.01,2013-02-21 22:14:00,
2013-02-21 17:19:00,24.6,6.8,29.50,North,0,0.0,0.0,46,0.00,,---,0.00,VWS V14.01,2013-02-21 22:19:00,
2013-02-21 17:25:00,24.4,6.6,29.50,North,0,0.0,0.0,46,0.00,,---,0.00,VWS V14.01,2013-02-21 22:25:00,
2013-02-21 17:30:00,24.4,6.6,29.50,North,0,0.0,0.0,46,0.00,,---,0.00,VWS V14.01,2013-02-21 22:30:00,
2013-02-21 17:36:00,24.3,6.9,29.50,North,0,0.0,0.0,47,0.00,,---,0.00,VWS V14.01,2013-02-21 22:36:00,
2013-02-21 17:41:00,24.3,6.9,29.50,North,0,0.0,0.0,47,0.00,,---,0.00,VWS V14.01,2013-02-21 22:41:00,
2013-02-21 17:46:00,24.4,7.1,29.50,North,0,0.0,0.0,47,0.00,,---,0.00,VWS V14.01,2013-02-21 22:46:00,
2013-02-21 17:52:00,24.4,7.6,29.53,North,0,0.0,0.0,48,0.00,,---,0.00,VWS V14.01,2013-02-21 22:52:00,
2013-02-21 17:58:00,24.4,7.6,29.53,North,0,0.0,0.0,48,0.00,,---,0.00,VWS V14.01,2013-02-21 22:58:00,
2013-02-21 18:03:00,24.6,8.2,29.53,North,0,0.0,0.0,49,0.00,,---,0.00,VWS V14.01,2013-02-21 23:03:00,
2013-02-21 18:08:00,24.8,8.4,29.53,North,0,0.0,0.0,49,0.00,,---,0.00,VWS V14.01,2013-02-21 23:08:00,
2013-02-21 18:13:00,24.8,8.4,29.53,North,0,0.0,0.0,49,0.00,,---,0.00,VWS V14.01,2013-02-21 23:13:00,
2013-02-21 18:18:00,24.8,8.8,29.53,North,0,0.0,0.0,50,0.00,,---,0.00,VWS V14.01,2013-02-21 23:18:00,
2013-02-21 18:23:00,25.2,9.6,29.53,North,0,0.0,0.0,51,0.00,,---,0.00,VWS V14.01,2013-02-21 23:23:00,
2013-02-21 18:28:00,25.2,9.6,29.53,North,0,0.0,0.0,51,0.00,,---,0.00,VWS V14.01,2013-02-21 23:28:00,
2013-02-21 18:34:00,25.2,9.6,29.53,North,0,0.0,0.0,51,0.00,,---,0.00,VWS V14.01,2013-02-21 23:34:00,
2013-02-21 18:39:00,25.3,9.8,29.56,North,0,0.0,0.0,51,0.00,,---,0.00,VWS V14.01,2013-02-21 23:39:00,
2013-02-21 18:45:00,25.3,9.8,29.56,North,0,0.0,0.0,51,0.00,,---,0.00,VWS V14.01,2013-02-21 23:45:00,
2013-02-21 18:51:00,25.5,10.4,29.56,North,0,0.0,0.0,52,0.00,,---,0.00,VWS V14.01,2013-02-21 23:51:00,
2013-02-21 18:56:00,25.9,10.3,29.56,North,0,0.0,0.0,51,0.00,,---,0.00,VWS V14.01,2013-02-21 23:56:00,
2013-02-21 19:01:00,25.9,10.3,29.56,North,0,0.0,0.0,51,0.00,,---,0.00,VWS V14.01,2013-02-22 00:01:00,
2013-02-21 19:06:00,25.9,10.3,29.56,North,0,0.0,0.0,51,0.00,,---,0.00,VWS V14.01,2013-02-22 00:06:00,
2013-02-21 19:11:00,26.1,10.0,29.56,North,0,0.0,0.0,50,0.00,,---,0.00,VWS V14.01,2013-02-22 00:11:00,
2013-02-21 19:16:00,26.1,10.0,29.56,North,0,0.0,0.0,50,0.00,,---,0.00,VWS V14.01,2013-02-22 00:16:00,
2013-02-21 19:21:00,26.2,10.6,29.56,North,0,0.0,0.0,51,0.00,,---,0.00,VWS V14.01,2013-02-22 00:21:00,
2013-02-21 19:26:00,26.4,9.9,29.59,North,0,0.0,0.0,49,0.00,,---,0.00,VWS V14.01,2013-02-22 00:26:00,
2013-02-21 19:32:00,26.4,9.9,29.59,North,0,0.0,0.0,49,0.00,,---,0.00,VWS V14.01,2013-02-22 00:32:00,
2013-02-21 19:38:00,26.4,9.9,29.59,North,0,0.0,0.0,49,0.00,,---,0.00,VWS V14.01,2013-02-22 00:38:00,
2013-02-21 19:43:00,26.2,9.7,29.59,North,0,0.0,0.0,49,0.00,,---,0.00,VWS V14.01,2013-02-22 00:43:00,
2013-02-21 19:48:00,26.1,9.5,29.59,North,0,0.0,0.0,49,0.00,,---,0.00,VWS V14.01,2013-02-22 00:48:00,
2013-02-21 19:54:00,26.1,9.5,29.59,North,0,0.0,0.0,49,0.00,,---,0.00,VWS V14.01,2013-02-22 00:54:00,
2013-02-21 19:59:00,25.9,9.4,29.59,North,0,0.0,0.0,49,0.00,,---,0.00,VWS V14.01,2013-02-22 00:59:00,
2013-02-21 20:04:00,25.9,9.8,29.59,North,0,0.0,0.0,50,0.00,,---,0.00,VWS V14.01,2013-02-22 01:04:00,
2013-02-21 20:09:00,25.7,9.6,29.62,North,0,0.0,0.0,50,0.00,,---,0.00,VWS V14.01,2013-02-22 01:09:00,
2013-02-21 20:15:00,25.7,10.1,29.62,North,0,0.0,0.0,51,0.00,,---,0.00,VWS V14.01,2013-02-22 01:15:00,
2013-02-21 20:20:00,25.9,10.3,29.62,North,0,0.0,0.0,51,0.00,,---,0.00,VWS V14.01,2013-02-22 01:20:00,
2013-02-21 20:25:00,25.7,10.1,29.62,North,0,0.0,0.0,51,0.00,,---,0.00,VWS V14.01,2013-02-22 01:25:00,
2013-02-21 20:31:00,25.5,9.9,29.62,North,0,0.0,0.0,51,0.00,,---,0.00,VWS V14.01,2013-02-22 01:31:00,
2013-02-21 20:37:00,25.5,10.4,29.62,North,0,0.0,0.0,52,0.00,,---,0.00,VWS V14.01,2013-02-22 01:37:00,
2013-02-21 20:42:00,25.5,10.4,29.62,North,0,0.0,0.0,52,0.00,,---,0.00,VWS V14.01,2013-02-22 01:42:00,
2013-02-21 20:48:00,25.7,10.5,29.62,North,0,0.0,0.0,52,0.00,,---,0.00,VWS V14.01,2013-02-22 01:48:00,
2013-02-21 20:53:00,25.7,10.5,29.65,North,0,0.0,0.0,52,0.00,,---,0.00,VWS V14.01,2013-02-22 01:53:00,
2013-02-21 20:58:00,25.7,10.5,29.65,North,0,0.0,0.0,52,0.00,,---,0.00,VWS V14.01,2013-02-22 01:58:00,
2013-02-21 21:03:00,25.9,11.1,29.65,North,0,0.0,0.0,53,0.00,,---,0.00,VWS V14.01,2013-02-22 02:03:00,
2013-02-21 21:09:00,25.9,11.1,29.65,North,0,0.0,0.0,53,0.00,,---,0.00,VWS V14.01,2013-02-22 02:09:00,
2013-02-21 21:15:00,26.1,11.3,29.65,North,0,0.0,0.0,53,0.00,,---,0.00,VWS V14.01,2013-02-22 02:15:00,
2013-02-21 21:21:00,26.1,11.3,29.65,North,0,0.0,0.0,53,0.00,,---,0.00,VWS V14.01,2013-02-22 02:21:00,
2013-02-21 21:26:00,26.1,11.7,29.65,North,0,0.0,0.0,54,0.00,,---,0.00,VWS V14.01,2013-02-22 02:26:00,
2013-02-21 21:31:00,25.9,11.5,29.65,North,0,0.0,0.0,54,0.00,,---,0.00,VWS V14.01,2013-02-22 02:31:00,
2013-02-21 21:36:00,25.7,11.4,29.65,North,0,0.0,0.0,54,0.00,,---,0.00,VWS V14.01,2013-02-22 02:36:00,
2013-02-21 21:41:00,25.5,11.2,29.65,North,0,0.0,0.0,54,0.00,,---,0.00,VWS V14.01,2013-02-22 02:41:00,
2013-02-21 21:46:00,25.5,11.6,29.65,North,0,0.0,0.0,55,0.00,,---,0.00,VWS V14.01,2013-02-22 02:46:00,
2013-02-21 21:51:00,25.5,11.6,29.65,North,0,0.0,0.0,55,0.00,,---,0.00,VWS V14.01,2013-02-22 02:51:00,
2013-02-21 21:56:00,25.5,12.0,29.68,North,0,0.0,0.0,56,0.00,,---,0.00,VWS V14.01,2013-02-22 02:56:00,
2013-02-21 22:01:00,25.3,11.4,29.68,North,0,0.0,0.0,55,0.00,,---,0.00,VWS V14.01,2013-02-22 03:01:00,
2013-02-21 22:06:00,25.5,12.0,29.68,North,0,0.0,0.0,56,0.00,,---,0.00,VWS V14.01,2013-02-22 03:06:00,
2013-02-21 22:11:00,25.5,12.0,29.68,North,0,0.0,0.0,56,0.00,,---,0.00,VWS V14.01,2013-02-22 03:11:00,
2013-02-21 22:17:00,25.5,12.0,29.68,North,0,0.0,0.0,56,0.00,,---,0.00,VWS V14.01,2013-02-22 03:17:00,
2013-02-21 22:22:00,25.5,12.0,29.68,North,0,0.0,0.0,56,0.00,,---,0.00,VWS V14.01,2013-02-22 03:22:00,
2013-02-21 22:27:00,25.3,11.9,29.68,North,0,0.0,0.0,56,0.00,,---,0.00,VWS V14.01,2013-02-22 03:27:00,
2013-02-21 22:32:00,25.3,11.9,29.68,North,0,0.0,0.0,56,0.00,,---,0.00,VWS V14.01,2013-02-22 03:32:00,
2013-02-21 22:37:00,25.2,11.7,29.68,North,0,0.0,0.0,56,0.00,,---,0.00,VWS V14.01,2013-02-22 03:37:00,
2013-02-21 22:42:00,25.5,12.8,29.68,North,0,0.0,0.0,58,0.00,,---,0.00,VWS V14.01,2013-02-22 03:42:00,
2013-02-21 22:47:00,25.5,12.4,29.68,North,0,0.0,0.0,57,0.00,,---,0.00,VWS V14.01,2013-02-22 03:47:00,
2013-02-21 22:52:00,25.3,12.2,29.68,North,0,0.0,0.0,57,0.00,,---,0.00,VWS V14.01,2013-02-22 03:52:00,
2013-02-21 22:58:00,25.5,12.8,29.68,North,0,0.0,0.0,58,0.00,,---,0.00,VWS V14.01,2013-02-22 03:58:00,
2013-02-21 23:03:00,25.3,12.2,29.68,North,0,0.0,0.0,57,0.00,,---,0.00,VWS V14.01,2013-02-22 04:03:00,
2013-02-21 23:08:00,25.7,13.4,29.71,North,0,0.0,0.0,59,0.00,,---,0.00,VWS V14.01,2013-02-22 04:08:00,
2013-02-21 23:13:00,25.5,12.8,29.71,North,0,0.0,0.0,58,0.00,,---,0.00,VWS V14.01,2013-02-22 04:13:00,
2013-02-21 23:18:00,25.9,13.5,29.71,North,0,0.0,0.0,59,0.00,,---,0.00,VWS V14.01,2013-02-22 04:18:00,
2013-02-21 23:23:00,26.1,13.7,29.71,North,0,0.0,0.0,59,0.00,,---,0.00,VWS V14.01,2013-02-22 04:23:00,
2013-02-21 23:28:00,26.1,13.3,29.71,North,0,0.0,0.0,58,0.00,,---,0.00,VWS V14.01,2013-02-22 04:28:00,
2013-02-21 23:33:00,25.9,13.1,29.71,North,0,0.0,0.0,58,0.00,,---,0.00,VWS V14.01,2013-02-22 04:33:00,
2013-02-21 23:38:00,26.1,13.3,29.74,North,0,0.0,0.0,58,0.00,,---,0.00,VWS V14.01,2013-02-22 04:38:00,
2013-02-21 23:43:00,26.4,13.7,29.74,North,0,0.0,0.0,58,0.00,,---,0.00,VWS V14.01,2013-02-22 04:43:00,
2013-02-21 23:48:00,26.4,13.7,29.74,North,0,0.0,0.0,58,0.00,,---,0.00,VWS V14.01,2013-02-22 04:48:00,
2013-02-21 23:53:00,26.4,13.7,29.74,North,0,0.0,0.0,58,0.00,,---,0.00,VWS V14.01,2013-02-22 04:53:00,
2013-02-21 23:58:00,26.4,13.7,29.74,North,0,0.0,0.0,58,0.00,,---,0.00,VWS V14.01,2013-02-22 04:58:00,